Showing default

TELSTAR 11N, 34111

Orbit data source: Space-Track

TELSTAR 11N, 34111 is a payload satellite owned by Telesat/Skynet (CA) in GEO that was launched on Thu, 26 Feb 2009 UTC via a ZENIT-3SLB launch vehicle from the Tyuratam Missile And Space Complex (TTMTR). Payload-class satellites include a variety of spacecraft equipped with specific instruments for various scientific and technological missions. These include communications satellites like Starlink; space stations such as the ISS; scientific satellites like the Hubble; Earth observation satellites from companies like Planet Labs, Umbra, and HawkEye 360; GPS; miniature CubeSats for education and research; and military/defense satellites.

Not visible in the next 10 days
Identifier
34111, 2009-009A
Orbit
GEO
Last TLE update
12 hours ago
Origin
Manufacturer
SS/Loral
Mission
Operational Commercial Communications
Bus & Motor
FS-1300, R-4D-11-164
Mass
4,010 kg wet, ~2,000 kg dry
Launch date (UTC)
2009-02-26 (16 years ago)
Launch vehicle
ZENIT-3SLB
Launch site
Tyuratam Missile And Space Complex (TTMTR)
Object type
Payload
Rocket body
Debris
Shape & HBR
Box + 2 Pan, 31 m
Radar Cross Section
40.765 m², Large (>1 m²)

Expand to show TLE details & history

TLE from 12 hours ago
0 TELSTAR 11N
1 34111U 09009A   25128.87478155 -.00000245  00000-0  00000+0 0  9992
2 34111   0.0142 279.8629 0002474 120.3688 104.0847  1.00270533 59365
Epoch: 2025-05-08T20:59Z
Definitive object data (Epoch: 2025-05-08T20:59:41.125Z)
Latitude
-0.02794°
Longitude
-37.51933°
Altitude
35,788.989 km
Speed
3.075 km/s
True Right ascension
09h 37m 21s
True Declination
0° 01' 40"
Sunlit
Object was in daylight at TLE epoch
Visualization TLE readout
Latitude
0.02801°
Longitude
144.12243°
Altitude
35,783.637 km
Speed
3.075 km/s
Apparent Right ascension
22h 09m 34s
Apparent Declination
-5° 42' 17"
Sunlit
Object is in daylight
Visualization observer readout
Local Sidereal Time
17:13:46
Azimuth
104.806° ESE
Elevation
8.465°
Doppler factor
1
Orbital elements
Apogee altitude
35,798.448 km
Perigee altitude
35,777.584 km
Semi-major axis
42,166.153 km
Eccentricity
0.0002474
Inclination
0.0142°
RAAN
279.8629°
Arg. of periapsis
120.3688°
True anomaly
104.1122°
Mean anomaly
104.0847°
Eccentric anomaly
104.09845°
Mean motion
0.25067 °/min
BSTAR
Unknown
Orbital period
1436.17 mins
Loading historical data...
34111 neighbors
Loading maneuver chart data...
Loading SW <> Apogee altitude chart data...
Loading historical data...
Loading historical data...
Loading historical data...
Loading historical data...
Loading historical data...
Loading historical data...
Loading historical data...
Other satellites on launch #9 in the year 2009 (2009-02-26 UTC)

TELSTAR 11N Visibility forecast

Observer location: undefined°, undefined°

TELSTAR 11N is not visible in the next 10 days
Span
Click to sort rows by Start time (UTC) header in descending order
Start Az.
Max El. time (UTC)
Max El. Az.
Max El.
End time (UTC)
End Az.
|